Wind_Speed
22 18 22 25 21 17 17 17 18 19 19 20 20 20 17 14 14 14 13 12 9 8 7 11 9 8 7 6 5 4 4 6 7
32 22 30 31 26 21 22 16 18 20 21 22 23 22 20 16 15 15 14 10 7 13 16 13 8 7 7 6 6 7 6 7 7
25 27 32 30 31 19 23 20 19 20 23 22 24 25 23 19 16 16 15 14 14 16 16 12 16 11 7 6 5 7 7 6 8
32 31 30 30 35 30 23 22 20 24 26 26 25 25 25 24 20 17 15 15 15 17 18 13 14 3 11 9 7 6 6 6 8
36 35 34 30 34 16 27 24 23 32 29 29 28 26 26 26 25 22 18 16 16 16 19 14 13 12 14 13 7 6 6 7 8
34 37 34 27 25 24 27 29 32 29 30 30 31 24 24 26 27 26 23 20 17 16 18 17 15 15 14 12 10 9 9 9 8
34 38 37 34 31 28 30 28 27 23 27 30 24 31 26 29 26 27 27 25 22 19 18 18 17 16 15 13 12 11 12 12 12
37 39 39 39 39 37 35 34 35 26 35 33 27 22 28 23 27 30 24 27 24 23 22 21 20 20 19 17 15 16 16 15 14
38 42 43 43 42 42 40 40 36 32 34 24 27 27 26 28 27 16 27 31 28 26 24 24 23 22 23 23 20 20 21 20 18
37 45 46 46 44 44 44 44 43 41 38 33 27 30 24 31 32 31 26 27 28 30 30 29 26 26 26 26 26 25 24 24 22
44 43 49 49 49 48 48 47 46 43 40 43 37 32 26 28 33 34 32 32 34 32 34 34 30 29 29 30 29 29 28 27 26
46 46 44 48 50 51 50 51 50 46 44 44 43 41 39 37 33 34 23 37 35 35 35 34 34 33 31 31 32 33 32 32 31
50 47 47 49 49 50 50 51 51 50 49 49 49 47 44 45 42 39 40 29 28 39 36 36 35 36 36 34 32 35 36 37 36
55 54 53 53 53 53 52 52 52 52 51 51 51 53 52 51 48 46 41 40 36 33 41 41 37 37 36 36 38 38 39 41 42
50 53 55 55 55 55 55 55 55 55 55 54 53 53 53 52 52 52 49 46 45 44 41 40 35 42 39 34 39 41 45 46 46
50 51 52 54 55 57 59 59 58 58 58 57 56 55 55 55 54 54 54 52 50 48 48 46 42 39 37 43 36 44 48 50 49
46 46 48 51 53 57 58 60 62 63 63 63 62 61 61 60 58 58 58 57 56 54 52 51 48 45 44 41 38 43 50 52 48
41 43 44 46 49 52 55 57 59 63 64 65 66 66 66 67 67 65 63 63 61 60 57 56 54 50 46 45 39 35 43 46 47
41 43 44 45 47 49 51 54 57 58 60 61 64 67 69 69 70 71 71 70 68 66 64 61 60 56 53 49 44 48 50 53 54
36 36 36 39 41 44 47 51 54 57 59 61 63 65 68 70 72 73 73 74 75 74 72 69 66 63 59 57 53 54 53 55 57
Wind_Direction
243 242 231 219 213 227 233 222 211 217 218 214 218 221 215 211 205 224 218 241 215 203 205 225 202 200 202 210 226 215 201 189 186
225 220 214 218 214 217 228 222 215 216 221 218 216 223 219 213 214 218 232 230 218 230 231 220 210 226 221 208 200 213 205 203 194
242 233 242 230 219 227 211 216 216 217 224 221 222 222 222 215 219 223 221 219 218 226 229 214 230 199 230 227 216 200 203 208 220
244 244 241 223 246 231 218 237 220 217 231 221 222 223 225 220 215 224 226 224 225 233 235 212 236 241 261 241 227 222 212 215 220
234 241 247 252 237 235 219 218 219 225 227 231 225 221 224 227 224 220 229 234 231 238 247 236 218 212 234 238 235 226 218 226 222
234 238 244 247 249 235 242 255 212 213 236 235 230 232 228 230 229 228 225 233 236 238 248 243 225 224 230 232 225 226 230 229 225
235 233 235 237 239 240 243 239 217 219 237 235 223 226 226 226 230 230 232 228 232 234 240 247 244 230 227 234 236 233 236 239 231
233 234 235 235 235 241 248 254 257 248 236 230 227 212 225 232 232 211 224 229 228 231 232 235 235 237 232 227 227 230 231 231 232
228 232 233 234 237 239 242 250 255 260 251 215 233 230 231 227 242 236 221 221 222 227 228 231 233 232 233 228 225 226 227 229 228
233 229 232 234 236 239 242 245 248 249 250 242 235 220 233 237 242 238 226 228 229 231 233 231 232 233 233 232 229 229 228 230 229
239 233 232 235 238 239 242 245 248 249 246 248 251 247 248 242 241 254 246 237 233 233 230 234 236 238 237 235 234 234 233 232 231
240 238 236 236 238 242 243 245 248 246 250 252 253 252 254 255 260 253 253 248 242 238 238 237 236 235 238 240 241 241 240 238 236
242 243 242 241 240 241 243 245 247 248 246 249 254 256 256 259 260 262 254 258 256 240 240 240 238 238 235 236 238 244 247 247 241
241 242 242 243 244 244 244 245 247 248 249 247 248 251 254 256 258 259 257 258 259 254 240 238 241 239 239 238 239 239 242 247 249
241 244 244 244 245 247 248 248 248 249 250 250 249 250 252 254 257 260 259 255 255 256 259 250 250 245 247 248 249 244 243 244 247
243 244 245 248 250 250 249 250 251 252 252 252 253 252 252 253 254 256 260 261 258 255 256 257 255 250 247 250 255 244 254 248 245
248 247 246 246 248 250 252 253 253 253 253 253 253 254 254 253 252 252 254 257 259 260 258 256 256 253 249 253 259 266 244 240 246
253 254 252 251 250 251 252 254 255 256 255 254 254 254 254 254 254 253 252 252 254 257 259 259 259 258 254 250 246 247 244 243 246
253 255 258 259 259 258 257 256 256 257 257 257 256 257 256 254 253 254 255 253 252 252 254 256 257 256 256 254 246 247 246 249 245
250 253 257 261 262 263 263 263 262 262 260 259 259 257 257 257 256 254 254 255 255 252 253 252 254 257 256 255 253 248 249 255 256
Height
5893 5894 5896 5902 5903 5904 5906 5910 5915 5917 5920 5924 5927 5931 5934 5938 5940 5937 5943 5947 5948 5948 5950 5953 5953 5955 5957 5958 5961 5962 5964 5967 5968
5888 5892 5889 5895 5901 5897 5902 5908 5911 5915 5917 5921 5924 5927 5931 5935 5939 5939 5938 5940 5942 5947 5949 5952 5955 5957 5959 5959 5960 5963 5965 5967 5969
5888 5891 5890 5894 5893 5897 5900 5905 5907 5912 5912 5917 5920 5923 5927 5931 5936 5940 5942 5944 5944 5943 5946 5953 5944 5949 5958 5960 5962 5962 5964 5967 5969
5881 5884 5886 5876 5894 5894 5897 5901 5902 5902 5908 5909 5914 5919 5923 5927 5931 5937 5940 5942 5943 5941 5942 5954 5952 5952 5958 5960 5961 5962 5963 5965 5970
5875 5878 5881 5884 5889 5890 5889 5896 5906 5907 5903 5904 5908 5912 5917 5922 5928 5932 5937 5939 5941 5941 5938 5945 5950 5953 5956 5959 5960 5960 5962 5964 5967
5870 5872 5876 5880 5882 5886 5880 5890 5890 5896 5899 5900 5903 5909 5913 5916 5920 5926 5932 5935 5937 5939 5938 5941 5946 5950 5954 5957 5958 5959 5961 5963 5966
5865 5869 5874 5877 5881 5883 5884 5885 5884 5877 5891 5883 5893 5902 5905 5907 5914 5918 5925 5927 5932 5935 5938 5938 5941 5945 5948 5951 5954 5957 5959 5962 5964
5859 5862 5867 5871 5876 5878 5879 5879 5880 5883 5887 5890 5893 5895 5898 5905 5902 5894 5913 5920 5924 5929 5933 5936 5938 5940 5943 5946 5950 5954 5957 5960 5962
5852 5856 5860 5863 5866 5870 5872 5873 5876 5878 5881 5883 5887 5890 5893 5900 5893 5911 5905 5910 5916 5922 5927 5931 5934 5937 5939 5942 5946 5949 5952 5955 5957
5846 5849 5852 5854 5857 5861 5864 5866 5869 5873 5875 5875 5881 5884 5886 5890 5892 5901 5903 5905 5910 5916 5919 5924 5928 5932 5935 5938 5941 5943 5946 5949 5951
5838 5842 5845 5848 5850 5853 5855 5859 5861 5865 5870 5873 5876 5877 5879 5883 5885 5888 5896 5900 5904 5906 5910 5916 5922 5926 5929 5932 5935 5937 5940 5942 5945
5828 5833 5838 5841 5842 5843 5847 5850 5853 5857 5861 5863 5868 5872 5874 5879 5883 5884 5888 5890 5894 5899 5903 5907 5912 5916 5921 5925 5929 5931 5932 5934 5938
5822 5824 5827 5830 5832 5834 5838 5841 5844 5847 5851 5855 5858 5861 5866 5869 5872 5876 5880 5884 5887 5892 5896 5899 5903 5907 5911 5915 5920 5924 5927 5928 5930
5807 5810 5814 5816 5819 5823 5827 5831 5833 5836 5840 5845 5849 5852 5855 5858 5862 5865 5871 5875 5878 5882 5886 5889 5893 5897 5901 5905 5910 5914 5917 5919 5922
5796 5799 5802 5804 5808 5812 5814 5818 5821 5825 5828 5834 5838 5841 5844 5848 5850 5853 5858 5864 5867 5871 5874 5879 5882 5887 5891 5896 5899 5902 5905 5908 5911
5782 5786 5790 5792 5796 5798 5802 5805 5808 5811 5815 5819 5823 5828 5832 5836 5839 5842 5844 5849 5854 5859 5863 5867 5871 5876 5880 5885 5886 5890 5893 5896 5898
5768 5773 5776 5781 5782 5785 5788 5791 5794 5797 5801 5806 5810 5813 5817 5822 5827 5829 5833 5836 5840 5844 5850 5854 5859 5862 5867 5871 5873 5873 5874 5879 5886
5757 5758 5763 5767 5770 5773 5775 5778 5780 5782 5785 5789 5793 5797 5801 5805 5809 5814 5819 5823 5827 5831 5836 5840 5844 5849 5854 5858 5862 5863 5865 5866 5871
5744 5748 5751 5754 5756 5758 5761 5763 5765 5767 5770 5772 5775 5778 5782 5787 5792 5796 5800 5806 5811 5815 5820 5824 5828 5834 5838 5844 5849 5851 5853 5854 5857
5733 5736 5740 5740 5743 5744 5746 5748 5749 5751 5754 5756 5758 5762 5765 5768 5772 5777 5782 5785 5790 5796 5801 5807 5813 5817 5824 5828 5834 5836 5839 5840 5845